AirNav   Pilot Hours Calculator
 
 1450 users online  

IA67 Cass County Memorial Hospital Heliport
Atlantic, Iowa, USA

GOING TO ATLANTIC?


FAA INFORMATION EFFECTIVE 31 DECEMBER 2020

Location

FAA Identifier: IA67
Lat/Long: 41-24-01.5700N 094-59-24.0200W
41-24.026167N 094-59.400333W
41.4004361,-94.9900056
(estimated)
Elevation: 1250 ft. / 381 m (estimated)
Variation: 05E (1990)
Time zone: UTC -6 (UTC -5 during Daylight Saving Time)
Zip code: 50022

Heliport Operations

Heliport use: Private use, MEDICAL USE.
Activation date: 02/1992
Control tower: no
ARTCC: MINNEAPOLIS CENTER
FSS: FORT DODGE FLIGHT SERVICE STATION
Attendance: CONTINUOUS
Wind indicator: lighted
Segmented circle: no
Lights: FOR LIGHTS CALL 712-243-3250.

Heliport Communications

WX AWOS-3 at AIO (2.7 nm W): 127.825 (712-243-2748)
WX AWOS-3 at ADU (18 nm N): 118.075 (712-563-2101)
WX AWOS-3 at HNR (19 nm NW): 118.325 (712-744-4400)

Nearby radio navigation aids

VOR radial/distance  VOR name  Freq  Var
OVRr059/36.5OMAHA VORTAC116.3008E

Heliport Services

Runway Information

Helipad H1

Dimensions: 58 x 58 ft. / 18 x 18 m
CIRCULAR PAD.
Surface: concrete
Runway edge lights: PERI
AND PRKG LOT LGTS.
Latitude: 41-24.026167N
Longitude: 094-59.400333W
Elevation: 1250.0 ft.
Traffic pattern: leftleft

Heliport Ownership and Management from official FAA records

Ownership: Publicly-owned
Owner: CASS COUNTY
1501 E 10TH
ATLANTIC, IA 50022
Phone 712-243-3250
Manager: DIRECTOR OF PLANT OPERATION
1501 E 10TH
ATLANTIC, IA 50022
Phone 712-243-3250

Additional Remarks

A52-H1 PLINES 20O YARDS SE OF PAD WITH RED LIGHTS AND RADIO TOWER ON TOP OF HOSPITAL WITH RED LIGHTS.
OWNER DESIRES HELIPORT NOT BE CHARTED.
FOR CD CTC MINNEAPOLIS ARTCC AT 651-463-5588.

Instrument Procedures

There are no published instrument procedures at IA67.

Some nearby airports with instrument procedures:

KAIO - Atlantic Municipal Airport (3 nm W)
KADU - Audubon County Airport (18 nm N)
KHNR - Harlan Municipal Airport (19 nm NW)
KGFZ - Greenfield Municipal Airport (25 nm E)
KRDK - Red Oak Municipal Airport (26 nm SW)
 
Loc | Ops | Rwys | IFR | FBO | Links
Com | Nav | Svcs | Stats | Notes
Area around IA67 (Cass County Memorial Hospital Heliport)
 
Road maps at: MapQuest Bing Google
 
Aerial photo
No photo
 
Sectional chart

 
Airport distance calculator
Flying to Cass County Memorial Hospital Heliport? Find the distance to fly.

From to IA67

Sunrise and sunset
Times for 15-Jan-2021
 Local
(UTC-6)
 Zulu
(UTC)
Morning civil twilight07:1413:14
Sunrise07:4513:45
Sunset17:1423:14
Evening civil twilight17:4523:45

Current date and time
Zulu (UTC)  15-Jan-2021 19:22:29
Local (UTC-6)  15-Jan-2021 13:22:29
 
METAR
KAIO 
3nm W 
151855Z AUTO 34023G33KT 3/4SM +UP VV005 M01/M02 A2957 RMK AO2
KADU 
18nm N 
151855Z AUTO 33022G29KT BKN012 OVC019 M01/M02 A2957 RMK AO2 PWINO
KHNR 
19nm NW 
151855Z AUTO 34029G36KT M1/4SM -SN VV000 M01/M01 A2959 RMK AO2
TAF
KOMA 
41nm W 
151725Z 1518/1618 34027G42KT 1/2SM -SN BLSN OVC015 FM152000 34025G42KT 2SM -SN BLSN OVC015 FM152100 34024G42KT 2SM BLSN VCSH OVC015 FM152300 33021G29KT 6SM BLSN OVC015 FM160700 33014G22KT P6SM BKN020
KOFF 
45nm W 
1518/1624 32025G35KT 3200 -SN OVC025 620309 510018 QNH2966INS BECMG 1523/1524 32015KT 6000 -SN OVC030 620309 510018 QNH2981INS BECMG 1607/1608 32009KT 9999 NSW OVC030 620309 QNH2988INS TX00/1522Z TNM03/1610Z
NOTAMs
Click for the latest NOTAMs
NOTAMs are issued by the DoD/FAA and will open in a separate window not controlled by AirNav.

 

 
 

Would you like to see your business listed on this page?

 If your business provides an interesting product or service to pilots, flight crews, aircraft, or users of the Cass County Memorial Hospital Heliport, you should consider listing it here.  To start the listing process, click on the button below
 
Add a business
 

Other Pages about Cass County Memorial Hospital Heliport

Update a link
 
Copyright © AirNav, LLC. All rights reserved. Privacy Policy  Contact